Location: Ponte Samoggia
(44.5667°N, 11.1333°E)
Time: 23:16:34
(UTC+00:00)

Cosmos 2237 Rocket - Pass Details

Date: 26 May 2022
Orbit: 833 x 851 km, 71.0° (Epoch: 26 June)

Event Time Altitude Azimuth Distance (km) Brightness Sun altitude
Exits shadow 01:11:43 23° 253° (WSW) 1,721 3.4 -18.9°
Maximum altitude 01:14:35 38° 304° (NW) 1,280 3.1 -18.7°
Drops below altitude 10° 01:19:52 10° 12° (NNE) 2,486 5.7 -18.2°
Sets 01:22:32 0° 21° (NNE) 3,426 7.0 -17.9°
